﻿_id,日時,平均風速(m/s),平均風向,最大瞬間風速(m/s),最大風速時風向,気温(℃),湿度(%),10分間移動積算雨量(mm),1時間移動積算雨量(mm),日雨量(mm),累計雨量(mm)
1,2020-02-17T00:00:00,2.7,南西,7.8,南西,9.7,64.7,0,0,8,8
2,2020-02-17T00:01:00,2.7,南西,7.8,南西,9.7,64.8,0,0,0,8
3,2020-02-17T00:02:00,2.7,南西,7.8,南西,9.6,65.8,0,0,0,8
4,2020-02-17T00:03:00,2.6,南西,7.8,南西,9.6,65.1,0,0,0,8
5,2020-02-17T00:04:00,2.6,南西,7.8,南西,9.5,64.8,0,0,0,8
6,2020-02-17T00:05:00,2.6,南西,7.8,南西,9.5,65.1,0,0,0,8
7,2020-02-17T00:06:00,2.7,南西,7.8,南西,9.5,64.2,0,0,0,8
8,2020-02-17T00:07:00,2.6,南西,7.8,南西,9.5,63.9,0,0,0,8
9,2020-02-17T00:08:00,2.6,南西,6.6,南西,9.5,63.7,0,0,0,8
10,2020-02-17T00:09:00,2.6,南西,7.2,南南西,9.4,63.9,0,0,0,8
11,2020-02-17T00:10:00,2.7,南西,7.2,南南西,9.4,63.4,0,0,0,8
12,2020-02-17T00:11:00,2.7,南西,7.2,南南西,9.4,64.4,0,0,0,8
13,2020-02-17T00:12:00,2.8,西南西,7.2,南南西,9.3,64.7,0,0,0,8
14,2020-02-17T00:13:00,2.9,南西,7.2,南南西,9.3,63.8,0,0,0,8
15,2020-02-17T00:14:00,3,西南西,7.2,南南西,9.3,63.2,0,0,0,8
16,2020-02-17T00:15:00,3,西南西,7.2,南南西,9.3,62.6,0,0,0,8
17,2020-02-17T00:16:00,3,西南西,7.2,南南西,9.3,62.1,0,0,0,8
18,2020-02-17T00:17:00,2.9,西南西,7.2,南南西,9.2,62.4,0,0,0,8
19,2020-02-17T00:18:00,2.7,西南西,7.2,南南西,9.2,62.7,0,0,0,8
20,2020-02-17T00:19:00,2.6,西南西,6.3,西南西,9.2,63.7,0,0,0,8
21,2020-02-17T00:20:00,2.4,西南西,6.3,西南西,9.2,63.3,0,0,0,8
22,2020-02-17T00:21:00,2.5,南西,6.3,西南西,9.1,63.8,0,0,0,8
23,2020-02-17T00:22:00,2.5,南西,6.3,西南西,9.1,62.3,0,0,0,8
24,2020-02-17T00:23:00,2.6,南西,7.7,南南西,9.1,61.6,0,0,0,8
25,2020-02-17T00:24:00,2.6,南西,7.7,南南西,9.1,60.9,0,0,0,8
26,2020-02-17T00:25:00,2.5,南西,7.7,南南西,9.1,61.3,0,0,0,8
27,2020-02-17T00:26:00,2.6,南西,7.7,南南西,9.1,61.4,0,0,0,8
28,2020-02-17T00:27:00,2.6,南西,7.7,南南西,9.1,61.8,0,0,0,8
29,2020-02-17T00:28:00,2.6,南西,7.7,南南西,9,61.9,0,0,0,8
30,2020-02-17T00:29:00,2.6,南西,7.7,南南西,9,62.5,0,0,0,8
31,2020-02-17T00:30:00,2.7,西南西,7.7,南南西,9,61.7,0,0,0,8
32,2020-02-17T00:31:00,2.5,南西,7.7,南南西,8.9,61.7,0,0,0,8
33,2020-02-17T00:32:00,2.2,南西,7.7,南南西,8.9,62.2,0,0,0,8
34,2020-02-17T00:33:00,1.9,南西,5.3,西北西,8.9,62.5,0,0,0,8
35,2020-02-17T00:34:00,1.7,南西,5.3,西北西,8.9,62.4,0,0,0,8
36,2020-02-17T00:35:00,1.6,南西,5.3,西北西,8.9,62.1,0,0,0,8
37,2020-02-17T00:36:00,1.6,南西,7,南西,8.9,61.3,0,0,0,8
38,2020-02-17T00:37:00,1.7,南西,7,南西,8.8,60.6,0,0,0,8
39,2020-02-17T00:38:00,1.6,南西,7,南西,8.8,61,0,0,0,8
40,2020-02-17T00:39:00,1.7,南西,7,南西,8.8,60.8,0,0,0,8
41,2020-02-17T00:40:00,1.7,南西,7,南西,8.8,61,0,0,0,8
42,2020-02-17T00:41:00,1.8,南西,7,南西,8.8,61,0,0,0,8
43,2020-02-17T00:42:00,2,南西,7,南西,8.7,61.1,0,0,0,8
44,2020-02-17T00:43:00,2.1,南西,7,南西,8.7,61.6,0,0,0,8
45,2020-02-17T00:44:00,2.2,南西,7,南西,8.7,60.4,0,0,0,8
46,2020-02-17T00:45:00,2.4,南西,7,南西,8.7,59.9,0,0,0,8
47,2020-02-17T00:46:00,2.5,南西,6.2,南南西,8.6,59.4,0,0,0,8
48,2020-02-17T00:47:00,2.5,南西,5.8,南西,8.6,59.1,0,0,0,8
49,2020-02-17T00:48:00,2.7,南西,6.1,南西,8.6,58.7,0,0,0,8
50,2020-02-17T00:49:00,2.6,南西,6.1,南西,8.6,58.9,0,0,0,8
51,2020-02-17T00:50:00,2.7,南西,6.1,南西,8.6,59.3,0,0,0,8
52,2020-02-17T00:51:00,2.7,南西,6.1,南西,8.6,58.9,0,0,0,8
53,2020-02-17T00:52:00,2.8,西南西,6.3,西南西,8.6,58.8,0,0,0,8
54,2020-02-17T00:53:00,2.8,西南西,6.3,西南西,8.6,58.5,0,0,0,8
55,2020-02-17T00:54:00,2.8,西南西,6.3,西南西,8.5,58.3,0,0,0,8
56,2020-02-17T00:55:00,2.6,西南西,6.3,西南西,8.5,58.5,0,0,0,8
57,2020-02-17T00:56:00,2.4,西南西,6.3,西南西,8.5,58.9,0,0,0,8
58,2020-02-17T00:57:00,2.4,西南西,6.3,西南西,8.5,60,0,0,0,8
59,2020-02-17T00:58:00,2.3,西南西,6.3,西南西,8.5,59.3,0,0,0,8
60,2020-02-17T00:59:00,2.3,西南西,6.3,西南西,8.5,58.3,0,0,0,8
61,2020-02-17T01:00:00,2.3,西南西,6.3,西南西,8.4,58.4,0,0,0,8
62,2020-02-17T01:01:00,2.3,西南西,6.3,西南西,8.5,59.1,0,0,0,8
63,2020-02-17T01:02:00,2.1,西南西,6.2,西,8.4,59,0,0,0,8
64,2020-02-17T01:03:00,2.1,西南西,6.2,西,8.4,59.5,0,0,0,8
65,2020-02-17T01:04:00,2,西南西,6.2,西,8.4,59.8,0,0,0,8
66,2020-02-17T01:05:00,2.1,西南西,6.2,西,8.4,59.2,0,0,0,8
67,2020-02-17T01:06:00,2.2,西南西,6.2,西,8.4,58.9,0,0,0,8
68,2020-02-17T01:07:00,2.2,西南西,6.2,西,8.3,59.7,0,0,0,8
69,2020-02-17T01:08:00,2.3,西南西,5.6,西南西,8.4,58.9,0,0,0,8
70,2020-02-17T01:09:00,2.2,西南西,5.3,西,8.3,59.2,0,0,0,8
71,2020-02-17T01:10:00,2.1,西南西,5.2,西南西,8.3,59.4,0,0,0,8
72,2020-02-17T01:11:00,2.3,西南西,6.3,西,8.3,58.9,0,0,0,8
73,2020-02-17T01:12:00,2.4,西南西,6.3,西,8.3,58,0,0,0,8
74,2020-02-17T01:13:00,2.4,西南西,6.3,西,8.3,58.1,0,0,0,8
75,2020-02-17T01:14:00,2.4,西南西,6.3,西,8.2,58.6,0,0,0,8
76,2020-02-17T01:15:00,2.3,西南西,6.3,西,8.2,59.4,0,0,0,8
77,2020-02-17T01:16:00,2.2,西南西,6.3,西,8.2,59.6,0,0,0,8
78,2020-02-17T01:17:00,2.2,西南西,6.3,西,8.2,59.4,0,0,0,8
79,2020-02-17T01:18:00,2.1,西南西,6.3,西,8.2,59,0,0,0,8
80,2020-02-17T01:19:00,2.1,西南西,6.3,西,8.2,59.6,0,0,0,8
81,2020-02-17T01:20:00,2.2,西南西,6.3,西,8.1,59.4,0,0,0,8
82,2020-02-17T01:21:00,2.1,西南西,4.6,西北西,8.1,59.1,0,0,0,8
83,2020-02-17T01:22:00,2,西南西,4.2,西,8.1,59.1,0,0,0,8
84,2020-02-17T01:23:00,2,西南西,4.2,西,8,58.9,0,0,0,8
85,2020-02-17T01:24:00,2.1,西南西,5,南西,8,58.1,0,0,0,8
86,2020-02-17T01:25:00,2.2,西南西,5,南西,8,58.2,0,0,0,8
87,2020-02-17T01:26:00,2.3,西南西,5.6,南西,8,57.6,0,0,0,8
88,2020-02-17T01:27:00,2.4,西南西,6.4,南南西,8,57.9,0,0,0,8
89,2020-02-17T01:28:00,2.5,西南西,7,西南西,8,57.7,0,0,0,8
90,2020-02-17T01:29:00,2.7,西南西,7,西南西,8,56.2,0,0,0,8
91,2020-02-17T01:30:00,2.8,西南西,7,西南西,8,56.2,0,0,0,8
92,2020-02-17T01:31:00,2.7,南西,7,西南西,8,56.3,0,0,0,8
93,2020-02-17T01:32:00,2.9,南西,7,西南西,8,56.6,0,0,0,8
94,2020-02-17T01:33:00,2.8,南西,7,西南西,8,57,0,0,0,8
95,2020-02-17T01:34:00,3,南西,8.3,南南西,7.9,56.7,0,0,0,8
96,2020-02-17T01:35:00,3,南西,8.3,南南西,7.9,56.3,0,0,0,8
97,2020-02-17T01:36:00,2.9,南西,8.3,南南西,7.9,56.5,0,0,0,8
98,2020-02-17T01:37:00,2.9,南西,8.3,南南西,7.9,56.6,0,0,0,8
99,2020-02-17T01:38:00,2.9,南西,9.3,南南西,7.9,56.9,0,0,0,8
100,2020-02-17T01:39:00,2.8,南西,9.3,南南西,7.9,56.5,0,0,0,8
101,2020-02-17T01:40:00,2.7,南西,9.3,南南西,7.9,56.5,0,0,0,8
102,2020-02-17T01:41:00,3,南西,11.4,南南西,7.9,56.1,0,0,0,8
103,2020-02-17T01:42:00,3,南西,11.4,南南西,7.9,56.2,0,0,0,8
104,2020-02-17T01:43:00,3.1,南西,11.4,南南西,7.8,56.7,0,0,0,8
105,2020-02-17T01:44:00,3,南西,11.4,南南西,7.8,56.5,0,0,0,8
106,2020-02-17T01:45:00,3,南西,11.4,南南西,7.8,56,0,0,0,8
107,2020-02-17T01:46:00,3,南西,11.4,南南西,7.8,56.2,0,0,0,8
108,2020-02-17T01:47:00,2.9,南西,11.4,南南西,7.8,56.8,0,0,0,8
109,2020-02-17T01:48:00,2.8,南西,11.4,南南西,7.7,57,0,0,0,8
110,2020-02-17T01:49:00,2.8,南西,11.4,南南西,7.7,56.6,0,0,0,8
111,2020-02-17T01:50:00,2.7,南西,11.4,南南西,7.7,57.4,0,0,0,8
112,2020-02-17T01:51:00,2.3,南西,6.6,南西,7.6,57.9,0,0,0,8
113,2020-02-17T01:52:00,2.2,南西,6.6,南西,7.6,58.3,0,0,0,8
114,2020-02-17T01:53:00,2.1,西南西,5,南西,7.6,57.7,0,0,0,8
115,2020-02-17T01:54:00,2,西南西,5,南西,7.6,57.4,0,0,0,8
116,2020-02-17T01:55:00,1.9,西南西,4.6,南西,7.6,57.7,0,0,0,8
117,2020-02-17T01:56:00,1.9,西南西,4.6,南西,7.6,57,0,0,0,8
118,2020-02-17T01:57:00,2,西南西,4.6,南西,7.6,57.5,0,0,0,8
119,2020-02-17T01:58:00,1.9,西南西,3.8,西南西,7.6,58,0,0,0,8
120,2020-02-17T01:59:00,1.9,西南西,4.4,西,7.6,58,0,0,0,8
121,2020-02-17T02:00:00,2,西南西,5,西,7.6,56.5,0,0,0,8
122,2020-02-17T02:01:00,2.1,西南西,5,西,7.6,56.6,0,0,0,8
123,2020-02-17T02:02:00,2,西南西,5,西,7.6,56.6,0,0,0,8
124,2020-02-17T02:03:00,2.1,西南西,5,西,7.5,56.7,0,0,0,8
125,2020-02-17T02:04:00,2,西南西,5,西,7.6,56.8,0,0,0,8
126,2020-02-17T02:05:00,2,西南西,5,西,7.6,56.8,0,0,0,8
127,2020-02-17T02:06:00,2,西南西,5,西,7.5,57.2,0,0,0,8
128,2020-02-17T02:07:00,1.9,西南西,5,西,7.5,56.8,0,0,0,8
129,2020-02-17T02:08:00,1.8,西南西,5,西,7.5,57.4,0,0,0,8
130,2020-02-17T02:09:00,1.6,西南西,5,西,7.5,57.1,0,0,0,8
131,2020-02-17T02:10:00,1.4,西南西,4.6,西,7.4,57.4,0,0,0,8
132,2020-02-17T02:11:00,1.4,西南西,4.4,西,7.4,57.6,0,0,0,8
133,2020-02-17T02:12:00,1.4,西南西,5,南西,7.4,57,0,0,0,8
134,2020-02-17T02:13:00,1.4,西南西,5,南西,7.4,57.7,0,0,0,8
135,2020-02-17T02:14:00,1.4,西南西,5,南西,7.4,56.7,0,0,0,8
136,2020-02-17T02:15:00,1.5,西南西,5,南西,7.5,56,0,0,0,8
137,2020-02-17T02:16:00,1.6,西南西,5,南西,7.5,56.4,0,0,0,8
138,2020-02-17T02:17:00,1.7,西南西,5.9,西南西,7.5,56.2,0,0,0,8
139,2020-02-17T02:18:00,2.2,西南西,7.3,西北西,7.5,55.6,0,0,0,8
140,2020-02-17T02:19:00,2.6,西南西,11.8,西,7.5,54.8,0,0,0,8
141,2020-02-17T02:20:00,2.8,西南西,11.8,西,7.6,54.4,0,0,0,8
142,2020-02-17T02:21:00,3.1,西南西,11.8,西,7.6,54.6,0,0,0,8
143,2020-02-17T02:22:00,3.5,西,11.8,西,7.6,54.5,0,0,0,8
144,2020-02-17T02:23:00,3.6,西,11.8,西,7.5,54.4,0,0,0,8
145,2020-02-17T02:24:00,3.7,西,11.8,西,7.5,54.5,0,0,0,8
146,2020-02-17T02:25:00,3.8,西,11.8,西,7.5,54.8,0,0,0,8
147,2020-02-17T02:26:00,3.9,西,11.8,西,7.5,54.9,0,0,0,8
148,2020-02-17T02:27:00,3.9,西,11.8,西,7.5,54.5,0,0,0,8
149,2020-02-17T02:28:00,3.6,西,11.8,西,7.5,54.9,0,0,0,8
150,2020-02-17T02:29:00,3.3,西,9.1,西,7.5,54.8,0,0,0,8
151,2020-02-17T02:30:00,3.1,西南西,9.1,西,7.4,55,0,0,0,8
152,2020-02-17T02:31:00,2.8,西,9.1,西,7.5,55,0,0,0,8
153,2020-02-17T02:32:00,2.7,西,9,西北西,7.5,54.6,0,0,0,8
154,2020-02-17T02:33:00,2.8,西,9,西北西,7.5,54.3,0,0,0,8
155,2020-02-17T02:34:00,2.7,西,9,西北西,7.5,54.2,0,0,0,8
156,2020-02-17T02:35:00,2.7,西,6.4,西北西,7.5,54,0,0,0,8
157,2020-02-17T02:36:00,2.8,西,6.5,西,7.5,54.2,0,0,0,8
158,2020-02-17T02:37:00,2.9,西,7.5,西,7.4,54.6,0,0,0,8
159,2020-02-17T02:38:00,3,西,7.5,西,7.4,54.6,0,0,0,8
160,2020-02-17T02:39:00,3,西,7.5,西,7.4,54.2,0,0,0,8
161,2020-02-17T02:40:00,3.3,西,7.5,西,7.4,54.5,0,0,0,8
162,2020-02-17T02:41:00,3.5,西,7.5,西,7.5,54,0,0,0,8
163,2020-02-17T02:42:00,3.5,西,7.5,西,7.5,53.7,0,0,0,8
164,2020-02-17T02:43:00,3.2,西,7.5,西,7.5,53.7,0,0,0,8
165,2020-02-17T02:44:00,3.3,西,7.5,西,7.5,54.1,0,0,0,8
166,2020-02-17T02:45:00,3.2,西,7.5,西,7.4,54.7,0,0,0,8
167,2020-02-17T02:46:00,3.1,西,7.5,西,7.4,54.8,0,0,0,8
168,2020-02-17T02:47:00,3,西,7.5,西南西,7.4,54.5,0,0,0,8
169,2020-02-17T02:48:00,2.8,西,7.5,西南西,7.3,54.8,0,0,0,8
170,2020-02-17T02:49:00,2.7,西,7.5,西南西,7.3,55.4,0,0,0,8
171,2020-02-17T02:50:00,2.4,西,6.2,西,7.2,55.7,0,0,0,8
172,2020-02-17T02:51:00,2.1,西,5.9,西,7.2,56.1,0,0,0,8
173,2020-02-17T02:52:00,1.9,西,5.6,西北西,7.2,56.7,0,0,0,8
174,2020-02-17T02:53:00,1.8,西,5.6,西北西,7.2,56.3,0,0,0,8
175,2020-02-17T02:54:00,1.5,西,4.9,西北西,7.2,56,0,0,0,8
176,2020-02-17T02:55:00,1.3,西南西,4.9,西北西,7.2,56.5,0,0,0,8
177,2020-02-17T02:56:00,1.1,西南西,4.5,西,7.2,56.6,0,0,0,8
178,2020-02-17T02:57:00,1,南南西,2.4,西北西,7.2,57,0,0,0,8
179,2020-02-17T02:58:00,0.9,南,2.4,西北西,7.2,56.8,0,0,0,8
180,2020-02-17T02:59:00,0.9,南東,2.4,西北西,7.2,57,0,0,0,8
181,2020-02-17T03:00:00,0.8,東南東,2.4,西北西,7.3,57.4,0,0,0,8
182,2020-02-17T03:01:00,0.8,南東,2.4,西北西,7.1,57.9,0,0,0,8
183,2020-02-17T03:02:00,0.8,南東,2.4,西北西,7,58.2,0,0,0,8
184,2020-02-17T03:03:00,0.8,南東,2.2,南東,7,59.3,0,0,0,8
185,2020-02-17T03:04:00,0.9,南東,2.2,南東,7,59.6,0,0,0,8
186,2020-02-17T03:05:00,0.9,南東,2.2,南東,6.9,59.9,0,0,0,8
187,2020-02-17T03:06:00,0.8,南東,2.2,南東,6.9,60.1,0,0,0,8
188,2020-02-17T03:07:00,0.8,南東,1.8,南,6.9,60.2,0,0,0,8
189,2020-02-17T03:08:00,0.8,南南東,1.8,南,6.9,59.8,0,0,0,8
190,2020-02-17T03:09:00,0.7,南南東,1.8,南,6.9,61,0,0,0,8
191,2020-02-17T03:10:00,0.8,南南東,1.8,南,6.8,61.8,0,0,0,8
192,2020-02-17T03:11:00,0.7,南南東,2.2,南,6.8,61.8,0,0,0,8
193,2020-02-17T03:12:00,0.7,南南東,2.2,南,6.9,59.7,0,0,0,8
194,2020-02-17T03:13:00,0.7,南,2.2,南,6.8,60.5,0,0,0,8
195,2020-02-17T03:14:00,0.7,南,2.9,南,6.8,62.1,0,0,0,8
196,2020-02-17T03:15:00,0.7,南,2.9,南,6.8,60.3,0,0,0,8
197,2020-02-17T03:16:00,0.7,南,2.9,南,6.8,60.4,0,0,0,8
198,2020-02-17T03:17:00,0.7,南,2.9,南,6.9,60.6,0,0,0,8
199,2020-02-17T03:18:00,0.7,南,2.9,南,6.9,59,0,0,0,8
200,2020-02-17T03:19:00,0.8,南,2.9,南,6.9,59.4,0,0,0,8
201,2020-02-17T03:20:00,0.8,南,2.9,南,6.9,59.2,0,0,0,8
202,2020-02-17T03:21:00,0.8,南南西,2.9,南,6.9,59.5,0,0,0,8
203,2020-02-17T03:22:00,0.9,南南西,2.9,南,6.8,59.4,0,0,0,8
204,2020-02-17T03:23:00,0.9,南南西,2.9,南,6.9,57.9,0,0,0,8
205,2020-02-17T03:24:00,0.8,南南西,2.1,南,7,57.9,0,0,0,8
206,2020-02-17T03:25:00,0.8,南,2.1,南,7,58,0,0,0,8
207,2020-02-17T03:26:00,0.8,南,2.1,南,7,58.9,0,0,0,8
208,2020-02-17T03:27:00,0.8,南,2.1,南,6.9,60.1,0,0,0,8
209,2020-02-17T03:28:00,0.7,南,2.1,南,6.8,61.4,0,0,0,8
210,2020-02-17T03:29:00,0.7,南南東,2.1,南,6.9,62.7,0,0,0,8
211,2020-02-17T03:30:00,0.7,南南東,2,南西,6.7,62.5,0,0,0,8
212,2020-02-17T03:31:00,0.6,南南東,2,南西,6.7,61.5,0,0,0,8
213,2020-02-17T03:32:00,0.5,南南東,1.6,南,6.7,62.1,0,0,0,8
214,2020-02-17T03:33:00,0.5,南東,1.6,南,6.7,63,0,0,0,8
215,2020-02-17T03:34:00,0.5,南東,1.6,南,6.6,64.8,0,0,0,8
216,2020-02-17T03:35:00,0.5,南東,1.7,北東,6.6,64.2,0,0,0,8
217,2020-02-17T03:36:00,0.5,南南東,1.7,北東,6.5,67.6,0,0,0,8
218,2020-02-17T03:37:00,0.5,南南東,1.7,北東,6.5,67.5,0,0,0,8
219,2020-02-17T03:38:00,0.5,南,1.7,北東,6.5,67.2,0,0,0,8
220,2020-02-17T03:39:00,0.6,南南西,4.4,南南西,6.5,65.5,0,0,0,8
221,2020-02-17T03:40:00,0.7,南南西,4.4,南南西,6.7,60.3,0,0,0,8
222,2020-02-17T03:41:00,0.8,南南西,4.4,南南西,6.7,59.5,0,0,0,8
223,2020-02-17T03:42:00,0.9,南南西,4.4,南南西,6.7,59.8,0,0,0,8
224,2020-02-17T03:43:00,0.9,南西,4.4,南南西,6.7,60,0,0,0,8
225,2020-02-17T03:44:00,1,南西,4.4,南南西,6.7,60.1,0,0,0,8
226,2020-02-17T03:45:00,1,南西,4.4,南南西,6.7,59.8,0,0,0,8
227,2020-02-17T03:46:00,1,南南西,4.4,南南西,6.7,59.9,0,0,0,8
228,2020-02-17T03:47:00,1,南南西,4.4,南南西,6.6,60.5,0,0,0,8
229,2020-02-17T03:48:00,1.2,南南西,4.4,南南西,6.6,60.1,0,0,0,8
230,2020-02-17T03:49:00,1.1,南南西,3,南西,6.7,59.3,0,0,0,8
231,2020-02-17T03:50:00,1,南南西,2.3,南西,6.7,59.7,0,0,0,8
232,2020-02-17T03:51:00,1,南南西,2.3,南西,6.7,59.3,0,0,0,8
233,2020-02-17T03:52:00,0.9,南南西,2.3,南西,6.6,59.4,0,0,0,8
234,2020-02-17T03:53:00,0.8,南南西,2.3,南西,6.6,59.7,0,0,0,8
235,2020-02-17T03:54:00,0.7,南西,2.3,南西,6.6,60.4,0,0,0,8
236,2020-02-17T03:55:00,0.7,南西,2.3,南西,6.5,61.9,0,0,0,8
237,2020-02-17T03:56:00,0.7,南西,2.3,南西,6.3,66.1,0,0,0,8
238,2020-02-17T03:57:00,0.7,南南西,2.3,南西,6.1,69.3,0,0,0,8
239,2020-02-17T03:58:00,0.5,南,1.9,西,6,70.9,0,0,0,8
240,2020-02-17T03:59:00,0.5,南東,1.7,北北東,6,72,0,0,0,8
241,2020-02-17T04:00:00,0.5,東南東,1.7,北北東,6,72.7,0,0,0,8
242,2020-02-17T04:01:00,0.5,東北東,1.7,北北東,5.9,73,0,0,0,8
243,2020-02-17T04:02:00,0.5,東北東,1.7,北北東,5.9,73.8,0,0,0,8
244,2020-02-17T04:03:00,0.6,東北東,1.7,北北東,5.9,74,0,0,0,8
245,2020-02-17T04:04:00,0.7,北東,1.7,北北東,6,74.2,0,0,0,8
246,2020-02-17T04:05:00,0.7,北東,1.7,北北東,5.8,73.5,0,0,0,8
247,2020-02-17T04:06:00,0.7,東北東,1.4,北東,5.8,73.5,0,0,0,8
248,2020-02-17T04:07:00,0.7,北東,1.4,北東,5.9,74.1,0,0,0,8
249,2020-02-17T04:08:00,0.7,北東,1.4,北東,5.8,74,0,0,0,8
250,2020-02-17T04:09:00,0.7,北東,1.4,北東,5.7,74.1,0,0,0,8
251,2020-02-17T04:10:00,0.7,北東,1.4,北東,5.8,74.5,0,0,0,8
252,2020-02-17T04:11:00,0.7,北東,2.6,西,6.1,68,0,0,0,8
253,2020-02-17T04:12:00,0.7,北東,2.6,西,6,68.1,0,0,0,8
254,2020-02-17T04:13:00,0.6,東北東,2.6,西,6.1,67.9,0,0,0,8
255,2020-02-17T04:14:00,0.6,東北東,2.6,西,6.2,68,0,0,0,8
256,2020-02-17T04:15:00,0.5,東,2.6,西,6.2,68.5,0,0,0,8
257,2020-02-17T04:16:00,0.5,東北東,2.6,西,6.2,69.1,0,0,0,8
258,2020-02-17T04:17:00,0.5,東北東,2.6,西,6.1,69.1,0,0,0,8
259,2020-02-17T04:18:00,0.5,東,2.6,西,5.9,70.2,0,0,0,8
260,2020-02-17T04:19:00,0.5,東,3.2,西南西,5.9,70.4,0,0,0,8
261,2020-02-17T04:20:00,0.7,南,4.4,西南西,6.3,64,0,0,0,8
262,2020-02-17T04:21:00,0.8,南,4.4,西南西,6.5,61.1,0,0,0,8
263,2020-02-17T04:22:00,0.8,南,4.4,西南西,6.6,60.2,0,0,0,8
264,2020-02-17T04:23:00,1,南南西,4.7,南,6.6,59.9,0,0,0,8
265,2020-02-17T04:24:00,1.1,南西,4.7,南,6.6,59.6,0,0,0,8
266,2020-02-17T04:25:00,1.2,南西,4.7,南,6.6,59.7,0,0,0,8
267,2020-02-17T04:26:00,1.4,南西,5.7,南西,6.6,59.2,0,0,0,8
268,2020-02-17T04:27:00,1.5,南西,5.7,南西,6.6,58.4,0,0,0,8
269,2020-02-17T04:28:00,1.7,南西,5.7,南西,6.6,58.6,0,0,0,8
270,2020-02-17T04:29:00,1.9,南西,5.7,南西,6.6,58.5,0,0,0,8
271,2020-02-17T04:30:00,1.9,南西,5.7,南西,6.6,58.2,0,0,0,8
272,2020-02-17T04:31:00,2,南西,5.7,南西,6.7,58.4,0,0,0,8
273,2020-02-17T04:32:00,2,南西,5.7,南西,6.6,58.5,0,0,0,8
274,2020-02-17T04:33:00,2.1,南西,5.7,南西,6.6,58.4,0,0,0,8
275,2020-02-17T04:34:00,2.1,南西,5.7,南西,6.6,58.5,0,0,0,8
276,2020-02-17T04:35:00,2.2,南西,5.7,南西,6.6,59,0,0,0,8
277,2020-02-17T04:36:00,2.1,南西,4.8,南,6.6,59,0,0,0,8
278,2020-02-17T04:37:00,2.1,南西,4.8,南,6.6,58.8,0,0,0,8
279,2020-02-17T04:38:00,2.2,南西,6.4,南南西,6.6,58.6,0,0,0,8
280,2020-02-17T04:39:00,2.2,南西,6.4,南南西,6.6,58.2,0,0,0,8
281,2020-02-17T04:40:00,2.1,南西,6.4,南南西,6.6,58.3,0,0,0,8
282,2020-02-17T04:41:00,2.1,南西,6.4,南南西,6.6,58.6,0,0,0,8
283,2020-02-17T04:42:00,2.2,南西,6.4,南南西,6.6,58.6,0,0,0,8
284,2020-02-17T04:43:00,2.2,南西,6.4,南南西,6.6,58.4,0,0,0,8
285,2020-02-17T04:44:00,2.2,南西,6.4,南南西,6.6,57.8,0,0,0,8
286,2020-02-17T04:45:00,2.3,南西,6.4,南南西,6.6,57.3,0,0,0,8
287,2020-02-17T04:46:00,2.2,南西,6.4,南南西,6.6,57.9,0,0,0,8
288,2020-02-17T04:47:00,2.2,南西,6.4,南南西,6.6,58.1,0,0,0,8
289,2020-02-17T04:48:00,2,南西,6,南南西,6.6,58.2,0,0,0,8
290,2020-02-17T04:49:00,2,南西,6,南南西,6.6,58.3,0,0,0,8
291,2020-02-17T04:50:00,1.9,南西,6,南南西,6.5,58.2,0,0,0,8
292,2020-02-17T04:51:00,1.9,南西,6,南南西,6.5,58.2,0,0,0,8
293,2020-02-17T04:52:00,1.8,南西,6,南南西,6.5,58.4,0,0,0,8
294,2020-02-17T04:53:00,1.7,南西,6,南南西,6.5,58.6,0,0,0,8
295,2020-02-17T04:54:00,1.7,南西,6,南南西,6.5,58,0,0,0,8
296,2020-02-17T04:55:00,1.6,南西,6,南南西,6.5,58.1,0,0,0,8
297,2020-02-17T04:56:00,1.6,南西,6,南南西,6.5,58.1,0,0,0,8
298,2020-02-17T04:57:00,1.6,南西,3.5,南西,6.5,58.1,0,0,0,8
299,2020-02-17T04:58:00,1.6,南西,3.5,南西,6.5,58.5,0,0,0,8
300,2020-02-17T04:59:00,1.6,南西,3.5,南西,6.5,58.5,0,0,0,8
301,2020-02-17T05:00:00,1.7,南西,5.6,南西,6.5,58.2,0,0,0,8
302,2020-02-17T05:01:00,1.9,南西,6.1,南西,6.5,57.6,0,0,0,8
303,2020-02-17T05:02:00,2,南西,6.1,南西,6.5,56.9,0,0,0,8
304,2020-02-17T05:03:00,2.1,南西,6.1,南西,6.5,56.9,0,0,0,8
305,2020-02-17T05:04:00,2.2,南西,6.1,南西,6.5,57,0,0,0,8
306,2020-02-17T05:05:00,2.3,南西,6.1,南西,6.5,57.2,0,0,0,8
307,2020-02-17T05:06:00,2.3,南西,6.1,南西,6.5,56.8,0,0,0,8
308,2020-02-17T05:07:00,2.4,南西,6.1,南西,6.5,57.5,0,0,0,8
309,2020-02-17T05:08:00,2.4,南西,6.1,南西,6.5,57.1,0,0,0,8
310,2020-02-17T05:09:00,2.4,南西,6.1,南西,6.5,57,0,0,0,8
311,2020-02-17T05:10:00,2.4,南西,6.1,南西,6.4,57.1,0,0,0,8
312,2020-02-17T05:11:00,2.2,南西,5.1,西南西,6.4,56.8,0,0,0,8
313,2020-02-17T05:12:00,2.1,南西,5.1,西南西,6.4,56.6,0,0,0,8
314,2020-02-17T05:13:00,2,南西,4.6,南西,6.4,56.3,0,0,0,8
315,2020-02-17T05:14:00,2,南西,5.4,西南西,6.4,56.8,0,0,0,8
316,2020-02-17T05:15:00,2,南西,5.4,西南西,6.4,56.3,0,0,0,8
317,2020-02-17T05:16:00,2,南西,5.4,西南西,6.4,56.2,0,0,0,8
318,2020-02-17T05:17:00,2,南西,5.4,西南西,6.4,56.6,0,0,0,8
319,2020-02-17T05:18:00,1.9,南西,5.4,西南西,6.4,56.9,0,0,0,8
320,2020-02-17T05:19:00,1.9,南西,5.4,西南西,6.3,56.8,0,0,0,8
321,2020-02-17T05:20:00,1.8,南西,5.4,西南西,6.3,56.6,0,0,0,8
322,2020-02-17T05:21:00,1.9,南西,5.4,西南西,6.3,56.7,0,0,0,8
323,2020-02-17T05:22:00,1.9,南西,5.4,西南西,6.3,56.5,0,0,0,8
324,2020-02-17T05:23:00,1.9,南西,5.4,西南西,6.3,56.6,0,0,0,8
325,2020-02-17T05:24:00,1.8,南西,5.3,南西,6.3,56.6,0,0,0,8
326,2020-02-17T05:25:00,1.7,南西,5.2,西南西,6.3,56.4,0,0,0,8
327,2020-02-17T05:26:00,1.6,南西,4.8,南西,6.3,56.8,0,0,0,8
328,2020-02-17T05:27:00,1.6,南西,4.8,南西,6.3,57.5,0,0,0,8
329,2020-02-17T05:28:00,1.6,南西,4.8,南西,6.2,57.7,0,0,0,8
330,2020-02-17T05:29:00,1.5,南西,4.8,南西,6.2,58.2,0,0,0,8
331,2020-02-17T05:30:00,1.4,南西,4.8,南西,6.2,58.2,0,0,0,8
332,2020-02-17T05:31:00,1.3,西南西,4.8,南西,6.2,58.3,0,0,0,8
333,2020-02-17T05:32:00,1.3,西南西,4.8,南西,6.3,58.2,0,0,0,8
334,2020-02-17T05:33:00,1.3,西南西,4.8,南西,6.3,58.3,0,0,0,8
335,2020-02-17T05:34:00,1.2,西南西,4.2,西南西,6.3,57.8,0,0,0,8
336,2020-02-17T05:35:00,1.2,西,4.2,西南西,6.4,56.5,0,0,0,8
337,2020-02-17T05:36:00,1.1,西南西,4.2,西南西,6.3,56.7,0,0,0,8
338,2020-02-17T05:37:00,1.1,西,4.2,西南西,6.3,57.1,0,0,0,8
339,2020-02-17T05:38:00,1.1,西,4.2,西南西,6.3,57.3,0,0,0,8
340,2020-02-17T05:39:00,1.2,西,4.2,西南西,6.3,57,0,0,0,8
341,2020-02-17T05:40:00,1.2,西南西,4.2,西南西,6.3,55.6,0,0,0,8
342,2020-02-17T05:41:00,1.3,西南西,4.2,西南西,6.3,55.9,0,0,0,8
343,2020-02-17T05:42:00,1.2,西南西,3.9,西,6.2,55.6,0,0,0,8
344,2020-02-17T05:43:00,1.3,西南西,3.9,西,6.3,54.6,0,0,0,8
345,2020-02-17T05:44:00,1.3,西南西,3.9,西,6.3,54.8,0,0,0,8
346,2020-02-17T05:45:00,1.4,西南西,3.9,西,6.3,55.3,0,0,0,8
347,2020-02-17T05:46:00,1.4,西南西,3.9,西,6.2,54.9,0,0,0,8
348,2020-02-17T05:47:00,1.4,西南西,3.9,西,6.2,55.1,0,0,0,8
349,2020-02-17T05:48:00,1.4,西南西,3.9,西,6.2,55.1,0,0,0,8
350,2020-02-17T05:49:00,1.4,南西,3.5,南南西,6.2,55.8,0,0,0,8
351,2020-02-17T05:50:00,1.5,西南西,3.7,西,6.2,55.1,0,0,0,8
352,2020-02-17T05:51:00,1.6,西南西,3.7,西,6.2,54.6,0,0,0,8
353,2020-02-17T05:52:00,1.6,西南西,3.7,西,6.3,53.9,0,0,0,8
354,2020-02-17T05:53:00,1.6,西南西,3.7,西,6.2,53.6,0,0,0,8
355,2020-02-17T05:54:00,1.5,西南西,3.7,西,6.2,53.9,0,0,0,8
356,2020-02-17T05:55:00,1.4,南西,3.7,西,6.2,54.3,0,0,0,8
357,2020-02-17T05:56:00,1.4,南西,3.7,西,6.1,54.9,0,0,0,8
358,2020-02-17T05:57:00,1.4,南西,3.7,西,6.1,55.2,0,0,0,8
359,2020-02-17T05:58:00,1.4,南西,3.7,西,6,55.7,0,0,0,8
360,2020-02-17T05:59:00,1.4,南西,3.7,西,6,55.6,0,0,0,8
361,2020-02-17T06:00:00,1.3,南西,3.4,西南西,6,55.8,0,0,0,8
362,2020-02-17T06:01:00,1.2,南西,3,西南西,6,56.3,0,0,0,8
363,2020-02-17T06:02:00,1.1,南西,2.4,南西,6,56.3,0,0,0,8
364,2020-02-17T06:03:00,1,南西,2.3,西,6,56.1,0,0,0,8
365,2020-02-17T06:04:00,1.1,西南西,2.3,西,5.9,56,0,0,0,8
366,2020-02-17T06:05:00,1,西南西,2.3,西,5.9,55.6,0,0,0,8
367,2020-02-17T06:06:00,1.1,西南西,2.3,西,5.9,55.6,0,0,0,8
368,2020-02-17T06:07:00,1.1,西南西,3.2,西,5.8,55.4,0,0,0,8
369,2020-02-17T06:08:00,1.2,西南西,3.2,西,5.8,55.9,0,0,0,8
370,2020-02-17T06:09:00,1.2,西南西,3.2,西,5.8,56,0,0,0,8
371,2020-02-17T06:10:00,1.2,西南西,3.2,西,5.8,56.1,0,0,0,8
372,2020-02-17T06:11:00,1.2,西南西,3.2,西,5.8,55.8,0,0,0,8
373,2020-02-17T06:12:00,1.2,西南西,3.2,西,5.8,56.1,0,0,0,8
374,2020-02-17T06:13:00,1.2,西南西,3.2,西,5.8,55.9,0,0,0,8
375,2020-02-17T06:14:00,1.2,西南西,3.2,西,5.8,55.7,0,0,0,8
376,2020-02-17T06:15:00,1.3,西南西,3.2,西,5.8,55.4,0,0,0,8
377,2020-02-17T06:16:00,1.3,西南西,3.2,西,5.8,55.2,0,0,0,8
378,2020-02-17T06:17:00,1.4,西南西,5.4,西,5.8,54,0,0,0,8
379,2020-02-17T06:18:00,1.4,西南西,5.4,西,5.9,53,0,0,0,8
380,2020-02-17T06:19:00,1.5,西,5.4,西,5.9,52.7,0,0,0,8
381,2020-02-17T06:20:00,1.6,西,5.4,西,5.9,52.4,0,0,0,8
382,2020-02-17T06:21:00,1.7,西,5.4,西,5.9,52.3,0,0,0,8
383,2020-02-17T06:22:00,1.8,西,5.4,西,5.9,52.6,0,0,0,8
384,2020-02-17T06:23:00,1.9,西,5.4,西,5.9,51.8,0,0,0,8
385,2020-02-17T06:24:00,2,西,5.4,西,6,51.2,0,0,0,8
386,2020-02-17T06:25:00,2.1,西,5.4,西,6,51.1,0,0,0,8
387,2020-02-17T06:26:00,2.1,西,5.4,西,6,51,0,0,0,8
388,2020-02-17T06:27:00,1.9,西,4.2,西北西,5.9,51.5,0,0,0,8
389,2020-02-17T06:28:00,1.9,西,4.2,西北西,5.9,52,0,0,0,8
390,2020-02-17T06:29:00,1.8,西南西,4,西南西,5.8,52.5,0,0,0,8
391,2020-02-17T06:30:00,1.7,西南西,4,西南西,5.8,53.1,0,0,0,8
392,2020-02-17T06:31:00,1.6,西南西,4,西南西,5.7,53.6,0,0,0,8
393,2020-02-17T06:32:00,1.6,西南西,3.8,西,5.7,53.7,0,0,0,8
394,2020-02-17T06:33:00,1.5,西南西,3.8,西,5.7,54.3,0,0,0,8
395,2020-02-17T06:34:00,1.4,西南西,3.4,西,5.7,54.7,0,0,0,8
396,2020-02-17T06:35:00,1.4,西南西,4.5,南南西,5.8,54.3,0,0,0,8
397,2020-02-17T06:36:00,1.4,南西,4.5,南南西,5.8,54.3,0,0,0,8
398,2020-02-17T06:37:00,1.5,南西,4.5,南南西,5.7,54.8,0,0,0,8
399,2020-02-17T06:38:00,1.5,南西,4.5,南南西,5.7,55,0,0,0,8
400,2020-02-17T06:39:00,1.5,南西,4.5,南南西,5.7,55.4,0,0,0,8
401,2020-02-17T06:40:00,1.5,南西,4.5,南南西,5.7,55.7,0,0,0,8
402,2020-02-17T06:41:00,1.4,南西,4.5,南南西,5.7,55.9,0,0,0,8
403,2020-02-17T06:42:00,1.3,南西,4.5,南南西,5.7,56.2,0,0,0,8
404,2020-02-17T06:43:00,1.2,南西,4.5,南南西,5.7,56.6,0,0,0,8
405,2020-02-17T06:44:00,1.1,南西,4.5,南南西,5.7,56.9,0,0,0,8
406,2020-02-17T06:45:00,1,南西,3.8,南南西,5.7,56.8,0,0,0,8
407,2020-02-17T06:46:00,1,南西,3.8,南南西,5.6,57.2,0,0,0,8
408,2020-02-17T06:47:00,1,南西,4.3,南南西,5.7,56.8,0,0,0,8
409,2020-02-17T06:48:00,1.1,南西,4.3,南南西,5.6,56.9,0,0,0,8
410,2020-02-17T06:49:00,1.1,南西,4.3,南南西,5.6,57.2,0,0,0,8
411,2020-02-17T06:50:00,1.1,南西,4.3,南南西,5.6,57.6,0,0,0,8
412,2020-02-17T06:51:00,1.2,南南西,4.3,南南西,5.6,58,0,0,0,8
413,2020-02-17T06:52:00,1.3,南南西,4.3,南南西,5.5,58.3,0,0,0,8
414,2020-02-17T06:53:00,1.4,南南西,4.3,南南西,5.6,58.2,0,0,0,8
415,2020-02-17T06:54:00,1.5,南南西,4.3,南南西,5.5,58.5,0,0,0,8
416,2020-02-17T06:55:00,1.6,南南西,4.3,南南西,5.5,58.6,0,0,0,8
417,2020-02-17T06:56:00,1.6,南南西,4.3,南南西,5.5,58.7,0,0,0,8
418,2020-02-17T06:57:00,1.5,南南西,3.6,南南西,5.5,59.1,0,0,0,8
419,2020-02-17T06:58:00,1.4,南南西,3.6,南南西,5.5,59.6,0,0,0,8
420,2020-02-17T06:59:00,1.4,南南西,3.6,南南西,5.5,59.4,0,0,0,8
421,2020-02-17T07:00:00,1.3,南南西,3.6,南南西,5.5,59.6,0,0,0,8
422,2020-02-17T07:01:00,1.2,南南西,3.6,南南西,5.5,60,0,0,0,8
423,2020-02-17T07:02:00,1.2,南南西,3.6,南南西,5.5,59.9,0,0,0,8
424,2020-02-17T07:03:00,1.1,南南西,3.6,南南西,5.5,60.2,0,0,0,8
425,2020-02-17T07:04:00,1.2,南南西,3.6,南南西,5.5,60.3,0,0,0,8
426,2020-02-17T07:05:00,1.1,南南西,3.6,南南西,5.5,59.8,0,0,0,8
427,2020-02-17T07:06:00,1.2,南南西,3.3,南,5.5,59.4,0,0,0,8
428,2020-02-17T07:07:00,1.2,南南西,3.3,南,5.5,59.6,0,0,0,8
429,2020-02-17T07:08:00,1.4,南南西,4.8,南南西,5.5,59.5,0,0,0,8
430,2020-02-17T07:09:00,1.5,南南西,4.8,南南西,5.5,59.3,0,0,0,8
431,2020-02-17T07:10:00,1.6,南南西,4.8,南南西,5.5,59.6,0,0,0,8
432,2020-02-17T07:11:00,1.7,南南西,4.8,南南西,5.5,59.6,0,0,0,8
433,2020-02-17T07:12:00,1.7,南南西,4.8,南南西,5.5,59.4,0,0,0,8
434,2020-02-17T07:13:00,1.9,南南西,4.8,南南西,5.6,59,0,0,0,8
435,2020-02-17T07:14:00,1.9,南南西,4.8,南南西,5.6,59,0,0,0,8
436,2020-02-17T07:15:00,2,南南西,4.8,南南西,5.6,59,0,0,0,8
437,2020-02-17T07:16:00,1.9,南南西,4.8,南南西,5.5,59.6,0,0,0,8
438,2020-02-17T07:17:00,1.8,南南西,4.8,南南西,5.5,59.9,0,0,0,8
439,2020-02-17T07:18:00,1.6,南南西,4,南,5.5,60.3,0,0,0,8